User: anonymous   Login
Location: Unspecified
(0.0000°N, 0.0000°E)
Time: 00:57:34
(UTC+00:00)
Language:

EXOCUBE - Orbit

View from above orbital plane
View from above orbital plane
View from above satellite
View from above satellite

Ground track
Ground track

The orbit data is extracted from the following two-line orbital elements,

1 40380U 15003E   21023.53386672  .00000964  00000-0  45793-4 0  9993
2 40380  99.0885 120.3532 0135506 345.2953  14.4349 15.15091465329863
Epoch (UTC): 23 January 2021 12:48:46
Eccentricity: 0.0135506
inclination: 99.0885°
perigee height: 427 km
apogee height: 614 km
right ascension of ascending node: 120.3532°
argument of perigee: 345.2953°
revolutions per day: 15.15091465
mean anomaly at epoch: 14.4349°
orbit number at epoch: 32986

The dashed part of the orbit path shows where the satellite is in the earth's shadow,  

DLR